• Em Portugal
  • Lista de países
  • Para 7 dias
  • Temperatura da água
  • Mapas de satélite
  • Mapa do tempo
  • Widgets de tempo
  • user-avatar
    Iniciar Sessão

    Previsão horária em Bragino

    Hoje, 21 Maio, Segunda-feira

    Tempo Temperatura Precipitação Vento Pressão Humidade
    00:00 +10°C° 0 mm 1 m/s 766 mmHg 60%
    01:00 +10°C° 0 mm 1 m/s 766 mmHg 61%
    02:00 +8°C° 0 mm 0 m/s 766 mmHg 63%
    03:00 +9°C° 0 mm 0 m/s 766 mmHg 64%
    04:00 +9°C° 0 mm 0 m/s 767 mmHg 64%
    05:00 +10°C° 0 mm 0 m/s 767 mmHg 65%
    06:00 +12°C° 0 mm 0 m/s 767 mmHg 59%
    07:00 +14°C° 0 mm 0 m/s 767 mmHg 53%
    08:00 +17°C° 0 mm 0 m/s 767 mmHg 47%
    09:00 +21°C° 0 mm 1 m/s 767 mmHg 44%
    10:00 +22°C° 0 mm 1 m/s 767 mmHg 40%
    11:00 +24°C° 0 mm 1 m/s 767 mmHg 37%
    12:00 +24°C° 0 mm 1 m/s 767 mmHg 36%
    13:00 +25°C° 0 mm 1 m/s 767 mmHg 35%
    14:00 +25°C° 0 mm 1 m/s 767 mmHg 34%
    15:00 +25°C° 0 mm 1 m/s 766 mmHg 35%
    16:00 +24°C° 0 mm 1 m/s 766 mmHg 36%
    17:00 +24°C° 0 mm 1 m/s 766 mmHg 37%
    18:00 +22°C° 0 mm 1 m/s 766 mmHg 45%
    19:00 +20°C° 0 mm 1 m/s 766 mmHg 53%
    20:00 +18°C° 0 mm 1 m/s 766 mmHg 61%
    21:00 +16°C° 0 mm 1 m/s 766 mmHg 63%
    22:00 +15°C° 0 mm 1 m/s 766 mmHg 65%
    23:00 +14°C° 0 mm 1 m/s 766 mmHg 66%

    Amanhã, 22 Maio, Terça-feira

    Tempo Temperatura Precipitação Vento Pressão Humidade
    00:00 +13°C° 0 mm 1 m/s 766 mmHg 68%
    01:00 +13°C° 0 mm 1 m/s 766 mmHg 70%
    02:00 +13°C° 0 mm 1 m/s 766 mmHg 72%
    03:00 +13°C° 0 mm 2 m/s 766 mmHg 73%
    04:00 +13°C° 0 mm 2 m/s 766 mmHg 74%
    05:00 +13°C° 0 mm 2 m/s 765 mmHg 75%
    06:00 +14°C° 0 mm 2 m/s 765 mmHg 69%
    07:00 +16°C° 0 mm 2 m/s 765 mmHg 63%
    08:00 +18°C° 0 mm 2 m/s 765 mmHg 57%
    09:00 +19°C° 0 mm 2 m/s 764 mmHg 52%
    10:00 +21°C° 0 mm 3 m/s 764 mmHg 46%
    11:00 +22°C° 0 mm 3 m/s 763 mmHg 41%
    12:00 +21°C° 0 mm 3 m/s 763 mmHg 42%
    13:00 +21°C° 0 mm 3 m/s 763 mmHg 44%
    14:00 +21°C° 0 mm 3 m/s 763 mmHg 45%
    15:00 +20°C° 0 mm 3 m/s 762 mmHg 51%
    16:00 +18°C° 0 mm 3 m/s 762 mmHg 56%
    17:00 +17°C° 0 mm 3 m/s 762 mmHg 62%
    18:00 +16°C° 0 mm 2 m/s 761 mmHg 68%
    19:00 +15°C° 0 mm 2 m/s 761 mmHg 74%
    20:00 +14°C° 0 mm 1 m/s 761 mmHg 79%
    21:00 +13°C° 0 mm 1 m/s 761 mmHg 82%
    22:00 +12°C° 0 mm 1 m/s 761 mmHg 85%
    23:00 +11°C° 0 mm 1 m/s 761 mmHg 88%

    Depois de amanhã, 23 Maio, Quarta-feira

    Tempo Temperatura Precipitação Vento Pressão Humidade
    00:00 +11°C° 0 mm 1 m/s 760 mmHg 90%
    01:00 +11°C° 0 mm 1 m/s 760 mmHg 91%
    02:00 +10°C° 0 mm 1 m/s 760 mmHg 92%
    03:00 +11°C° 0 mm 1 m/s 760 mmHg 92%
    04:00 +11°C° 0 mm 1 m/s 760 mmHg 91%
    05:00 +11°C° 0 mm 1 m/s 760 mmHg 91%
    06:00 +13°C° 0 mm 2 m/s 760 mmHg 83%
    07:00 +15°C° 0 mm 2 m/s 760 mmHg 76%
    08:00 +17°C° 0 mm 2 m/s 760 mmHg 68%
    09:00 +18°C° 0 mm 2 m/s 760 mmHg 64%
    10:00 +19°C° 0 mm 2 m/s 760 mmHg 59%
    11:00 +20°C° 0 mm 2 m/s 760 mmHg 55%
    12:00 +20°C° 0,3 mm 2 m/s 760 mmHg 56%
    13:00 +20°C° 0,3 mm 3 m/s 760 mmHg 57%
    14:00 +20°C° 0,3 mm 3 m/s 761 mmHg 59%
    15:00 +19°C° 0,1 mm 3 m/s 761 mmHg 60%
    16:00 +19°C° 0,1 mm 3 m/s 761 mmHg 61%
    17:00 +19°C° 0,1 mm 3 m/s 761 mmHg 62%
    18:00 +18°C° 0 mm 3 m/s 761 mmHg 67%
    19:00 +16°C° 0 mm 2 m/s 762 mmHg 72%
    20:00 +15°C° 0 mm 2 m/s 762 mmHg 77%
    21:00 +14°C° 0 mm 2 m/s 762 mmHg 80%
    22:00 +13°C° 0 mm 2 m/s 762 mmHg 83%
    23:00 +12°C° 0 mm 2 m/s 762 mmHg 86%

    24 Maio, Quinta-feira

    Tempo Temperatura Precipitação Vento Pressão Humidade
    00:00 +12°C° 0 mm 2 m/s 763 mmHg 86%
    01:00 +10°C° 0 mm 2 m/s 763 mmHg 87%
    02:00 +10°C° 0 mm 2 m/s 763 mmHg 88%
    03:00 +10°C° 0 mm 2 m/s 763 mmHg 87%
    04:00 +10°C° 0 mm 2 m/s 763 mmHg 86%
    05:00 +12°C° 0 mm 2 m/s 763 mmHg 84%
    06:00 +14°C° 0 mm 2 m/s 764 mmHg 78%
    07:00 +16°C° 0 mm 2 m/s 764 mmHg 71%
    08:00 +18°C° 0 mm 2 m/s 764 mmHg 64%
    09:00 +19°C° 0 mm 2 m/s 765 mmHg 61%
    10:00 +20°C° 0 mm 3 m/s 765 mmHg 57%
    11:00 +22°C° 0 mm 3 m/s 765 mmHg 54%
    12:00 +21°C° 0,1 mm 4 m/s 766 mmHg 55%
    13:00 +21°C° 0,1 mm 4 m/s 766 mmHg 56%
    14:00 +21°C° 0,1 mm 4 m/s 766 mmHg 57%
    15:00 +20°C° 0 mm 5 m/s 766 mmHg 55%
    16:00 +20°C° 0 mm 5 m/s 766 mmHg 54%
    17:00 +19°C° 0 mm 5 m/s 766 mmHg 52%
    18:00 +18°C° 0 mm 4 m/s 767 mmHg 54%
    19:00 +15°C° 0 mm 4 m/s 767 mmHg 56%
    20:00 +13°C° 0 mm 4 m/s 768 mmHg 57%
    21:00 +12°C° 0 mm 4 m/s 768 mmHg 58%
    22:00 +11°C° 0 mm 4 m/s 768 mmHg 59%
    23:00 +9°C° 0 mm 3 m/s 769 mmHg 60%

    25 Maio, Sexta-feira

    Tempo Temperatura Precipitação Vento Pressão Humidade
    00:00 +9°C° 0 mm 3 m/s 769 mmHg 62%
    01:00 +8°C° 0 mm 3 m/s 770 mmHg 64%
    02:00 +7°C° 0 mm 3 m/s 770 mmHg 67%
    03:00 +7°C° 0 mm 3 m/s 770 mmHg 65%
    04:00 +7°C° 0 mm 3 m/s 770 mmHg 64%
    05:00 +7°C° 0 mm 2 m/s 771 mmHg 63%
    06:00 +9°C° 0 mm 3 m/s 771 mmHg 55%
    07:00 +11°C° 0 mm 3 m/s 771 mmHg 47%
    08:00 +12°C° 0 mm 3 m/s 771 mmHg 39%
    09:00 +14°C° 0 mm 3 m/s 771 mmHg 37%
    10:00 +16°C° 0 mm 3 m/s 771 mmHg 34%
    11:00 +17°C° 0 mm 3 m/s 771 mmHg 31%
    12:00 +18°C° 0 mm 3 m/s 771 mmHg 31%
    13:00 +19°C° 0 mm 3 m/s 770 mmHg 31%
    14:00 +19°C° 0 mm 3 m/s 770 mmHg 31%
    15:00 +19°C° 0 mm 2 m/s 770 mmHg 32%
    16:00 +19°C° 0 mm 2 m/s 770 mmHg 34%
    17:00 +19°C° 0 mm 2 m/s 770 mmHg 35%
    18:00 +17°C° 0 mm 2 m/s 769 mmHg 43%
    19:00 +16°C° 0 mm 2 m/s 769 mmHg 50%
    20:00 +14°C° 0 mm 1 m/s 769 mmHg 58%
    21:00 +13°C° 0 mm 1 m/s 770 mmHg 60%
    22:00 +12°C° 0 mm 1 m/s 770 mmHg 62%
    23:00 +10°C° 0 mm 2 m/s 770 mmHg 63%

    26 Maio, Sábado

    Tempo Temperatura Precipitação Vento Pressão Humidade
    00:00 +10°C° 0 mm 1 m/s 770 mmHg 65%
    01:00 +10°C° 0 mm 1 m/s 771 mmHg 66%
    02:00 +9°C° 0 mm 1 m/s 771 mmHg 67%
    03:00 +9°C° 0 mm 1 m/s 771 mmHg 67%
    04:00 +10°C° 0 mm 1 m/s 771 mmHg 67%
    05:00 +10°C° 0 mm 1 m/s 771 mmHg 67%
    06:00 +12°C° 0 mm 1 m/s 771 mmHg 60%
    07:00 +14°C° 0 mm 1 m/s 771 mmHg 54%
    08:00 +16°C° 0 mm 1 m/s 771 mmHg 47%
    09:00 +19°C° 0 mm 1 m/s 771 mmHg 44%
    10:00 +19°C° 0 mm 2 m/s 770 mmHg 40%
    11:00 +20°C° 0 mm 2 m/s 770 mmHg 37%
    12:00 +21°C° 0 mm 2 m/s 770 mmHg 36%
    13:00 +21°C° 0 mm 2 m/s 770 mmHg 36%
    14:00 +23°C° 0 mm 2 m/s 770 mmHg 35%
    15:00 +23°C° 0 mm 1 m/s 769 mmHg 36%
    16:00 +22°C° 0 mm 1 m/s 769 mmHg 38%
    17:00 +22°C° 0 mm 1 m/s 768 mmHg 39%
    18:00 +20°C° 0 mm 1 m/s 768 mmHg 47%
    19:00 +19°C° 0 mm 1 m/s 768 mmHg 54%
    20:00 +16°C° 0 mm 1 m/s 768 mmHg 61%
    21:00 +15°C° 0 mm 1 m/s 768 mmHg 63%
    22:00 +14°C° 0 mm 1 m/s 768 mmHg 65%
    23:00 +13°C° 0 mm 1 m/s 768 mmHg 66%
    Mostrar mais